Location: Regensburg
(48.4565°N, 10.3217°E)
Time: 09:45:55
(UTC+01:00)

ISS - Visible Passes

Search period start: 17 February 2019 00:00
Search period end: 27 February 2019 00:00
Orbit: 403 x 411 km, 51.6° (Epoch: 17 February)

Date Brightness Start Highest point End Pass type
(mag) Time Alt. Az. Time Alt. Az. Time Alt. Az.
21 Feb -0.3 06:42:31 10° SE 06:43:02 10° SE 06:43:33 10° SE visible
23 Feb -1.3 06:33:42 10° SSW 06:36:15 21° SE 06:38:49 10° E visible
24 Feb -0.9 05:43:22 10° SSE 05:44:58 13° SE 05:46:36 10° ESE visible
25 Feb -2.6 06:26:27 10° SW 06:29:33 41° SSE 06:32:40 10° ENE visible
26 Feb -1.9 05:35:45 12° SSW 05:38:09 26° SE 05:40:58 10° E visible
